Hourly Data Report for May 15, 2022

TORONTO INTL A
ONTARIO
Current Station Operator: NAVCAN

43°40'36.000" N
79°37'50.000" W
173.40 m
6158731
71624
YYZ

Download Data

Hourly Data (May 2022)
Hourly Data Report for May 15, 2022
TIME
LST
Temp Definition
°C
Dew Point Definition
°C
Rel Hum Definition
%
Precip. Amount Definition
mm

Wind Dir Definition
10's deg

Wind Spd Definition
km/h
Visibility Definition
km
Stn Press Definition
kPa
Hmdx Definition


Wind Chill Definition


Weather Definition


00:00 20.2 15.1 72   36 3 24.1 99.02     LegendNANA
01:00 18.0 15.9 87   17 9 24.1 98.93     Mainly Clear
02:00 16.1 16.1 99   25 7 24.1 98.96     LegendNANA
03:00 17.0 16.0 93   23 5 24.1 98.97     LegendNANA
04:00 16.6 15.9 96   27 7 24.1 98.96     Mainly Clear
05:00 15.8 15.8 100   29 3 24.1 98.92     LegendNANA
06:00 17.6 15.1 85   30 7 24.1 98.96     LegendNANA
07:00 19.7 16.3 81   36 2 24.1 99.01     Mostly Cloudy
08:00 21.7 15.5 68   36 2 24.1 99.02 26   LegendNANA
09:00 22.8 14.4 58   4 4 24.1 99.00 26   LegendNANA
10:00 24.8 15.9 57   31 3 24.1 98.99 29   Mainly Clear
11:00 25.7 14.4 49   34 13 24.1 98.97 29   LegendNANA
12:00 26.8 14.2 45   25 6 24.1 98.94 30   LegendNANA
13:00 26.0 15.9 53   14 17 24.1 98.86 31   Mainly Clear
14:00 27.1 15.6 49   14 13 24.1 98.76 31   LegendNANA
15:00 28.5 12.7 37   31 21 24.1 98.72 31   LegendNANA
16:00 28.9 12.4 36   31 24 24.1 98.65 31   Mainly Clear
17:00 28.9 10.1 31   32 27 24.1 98.65 30   LegendNANA
18:00 27.8 9.5 31   30 20 24.1 98.65 29   LegendNANA
19:00 25.0 8.6 35   28 13 24.1 98.63 26   Mostly Cloudy
20:00 24.3 10.4 41   28 10 24.1 98.63 26   LegendNANA
21:00 22.9 13.3 54   36 19 24.1 98.68 26   LegendNANA
22:00 21.8 13.6 59   36 9 24.1 98.69 25   Mostly Cloudy
23:00 21.1 13.9 63   35 15 24.1 98.67     LegendNANA

Notes on Data Quality.

Legend

  • E = Estimated
  • M = Missing
  • NA = Not Available*
  • [empty] = Indicates an unobserved value
Date modified: